Simultaneous Nadir Overpasses (SNOs) Predictions

Prediction of SNOs between GOES-16 and NPP Satellite Orbit:

Table of predicted SNOs for the next 14.0 days since TLE Epoch: 7/16/2022
Index Date Time (GOES-16) GOES-16 Lat,Lon NPP Lat,Lon Distance(km) Time Diff (sec)
1 07/16/2022 06:17:32 0.04, -75.19 -0.36, -73.43 200.91 80
2 07/17/2022 18:39:29 -0.04, -75.21 -0.85, -78.74 403.04 80
3 07/18/2022 18:23:26 -0.04, -75.21 0.17, -74.21 113.95 80
4 07/20/2022 06:45:15 0.04, -75.23 0.99, -79.49 485.55 80
5 07/21/2022 06:23:52 0.03, -75.24 -0.04, -74.96 31.67 80
6 07/23/2022 18:27:05 -0.03, -75.27 -0.14, -75.74 53.81 80
7 07/24/2022 18:11:02 -0.02, -75.29 0.89, -71.22 463.79 80
8 07/26/2022 06:32:51 -0.02, -75.31 0.27, -76.50 135.76 80
9 07/27/2022 06:11:28 -0.02, -75.33 -0.76, -71.97 382.15 80
10 07/28/2022 18:33:25 0.01, -75.35 -0.44, -77.28 219.74 80
11 07/29/2022 18:17:22 0.01, -75.38 0.60, -72.75 298.68 80
